Laconia, NH

5:11 PM EST on December 14, 2019 (GMT -0500)
Laconia Municipal

Weather History for KLCI - November, 2019

Change the Weather History Date:

Sunday, November 17, 2019

  Actual Average Record
Temperature  
Mean Temperature 22 °F -  
Max Temperature 33 °F 46 °F 66 °F (2006)
Min Temperature 10 °F 28 °F 21 °F (1996)
Degree Days  
Heating Degree Days 44    
Moisture  
Dew Point 13 °F    
Average Humidity 64    
Maximum Humidity 88    
Minimum Humidity 38    
Precipitation  
Precipitation 0.00 in - - ()
Sea Level Pressure  
Sea Level Pressure 30.41 in    
Wind  
Wind Speed 3 mph ()    
Max Wind Speed 13 mph    
Max Gust Speed -    
Visibility 10.0 miles    
Events      
Averages and records for this station are not official NWS values.
T = Trace of Precipitation, MM = Missing Value Source: Averaged Metar Reports

Daily Weather History Graph

Daily Weather History Graph

Search for Another Location

Airport or City:

Astronomy

Nov. 17, 2019 Rise Set
Actual Time 6:41 AM EST 4:18 PM EST
Civil Twilight 6:10 AM EST 4:50 PM EST
Nautical Twilight 5:35 AM EST 5:24 PM EST
Astronomical Twilight 5:01 AM EST 5:58 PM EST
Moon 8:49 PM EST (11/17) 11:27 AM EST (11/17)
Length of Visible Light 10h 39m
Length of Day
9h 37m
Waning Gibbous, 73% of the Moon is Illuminated
Nov 17
Waning Gibbous
Nov 19
Last Quarter
Nov 26
New
Dec 4
First Quarter
Dec 12
Full

Hourly Weather History & Observations

Time (EST) Temp. Windchill Dew Point Humidity Pressure Visibility Wind Dir Wind Speed Gust Speed Precip Events Conditions
12:56 AM 12.9 °F - 7.0 °F 77% 30.52 in 10.0 mi Calm Calm - N/A   Clear
1:56 AM 12.0 °F - 8.1 °F 84% 30.53 in 10.0 mi Calm Calm - N/A   Clear
2:56 AM 12.0 °F - 8.1 °F 84% 30.52 in 10.0 mi Calm Calm - N/A   Clear
3:56 AM 10.9 °F - 7.0 °F 84% 30.51 in 10.0 mi Calm Calm - N/A   Clear
4:56 AM 10.9 °F - 8.1 °F 88% 30.51 in 10.0 mi Calm Calm - N/A   Clear
5:56 AM 12.0 °F - 9.0 °F 88% 30.52 in 10.0 mi Calm Calm - N/A   Clear
6:56 AM 12.0 °F - 9.0 °F 88% 30.51 in 10.0 mi Calm Calm - N/A   Clear
7:56 AM 17.1 °F - 12.9 °F 84% 30.53 in 10.0 mi Calm Calm - N/A   Clear
8:56 AM 24.1 °F 13.7 °F 9.0 °F 53% 30.52 in 10.0 mi ENE 10.4 mph - N/A   Clear
9:56 AM 27.0 °F 18.7 °F 10.0 °F 49% 30.51 in 10.0 mi East 8.1 mph - N/A   Clear
10:56 AM 28.0 °F 18.6 °F 10.9 °F 49% 30.49 in 10.0 mi East 10.4 mph - N/A   Clear
11:56 AM 30.9 °F 23.5 °F 12.9 °F 47% 30.44 in 10.0 mi NNE 8.1 mph - N/A   Clear
12:56 PM 32.0 °F 24.2 °F 12.0 °F 44% 30.42 in 10.0 mi ENE 9.2 mph - N/A   Clear
2:56 PM 33.1 °F 25.5 °F 10.0 °F 38% 30.39 in 10.0 mi ENE 9.2 mph - N/A   Clear
3:56 PM 33.1 °F 27.7 °F 14.0 °F 46% 30.37 in 10.0 mi ENE 5.8 mph - N/A   Clear
4:56 PM 30.9 °F - 21.0 °F 67% 30.36 in 10.0 mi Calm Calm - N/A   Mostly Cloudy
5:56 PM 32.0 °F 26.4 °F 16.0 °F 52% 30.34 in 10.0 mi NE 5.8 mph - N/A   Overcast
6:56 PM 32.0 °F 24.2 °F 18.0 °F 56% 30.32 in 10.0 mi ENE 9.2 mph - N/A   Overcast
7:56 PM 30.9 °F 25.2 °F 16.0 °F 54% 30.30 in 10.0 mi NE 5.8 mph - N/A   Overcast
8:56 PM 30.9 °F 23.5 °F 17.1 °F 57% 30.29 in 10.0 mi East 8.1 mph - N/A   Overcast
9:56 PM 30.9 °F 24.3 °F 18.0 °F 59% 30.26 in 10.0 mi ENE 6.9 mph - N/A   Overcast
10:56 PM 30.9 °F 23.5 °F 18.0 °F 59% 30.23 in 10.0 mi East 8.1 mph - N/A   Overcast
11:18 PM 30.2 °F 20.2 °F 17.6 °F 60% 30.19 in 10.0 mi ENE 12.7 mph - N/A   Overcast
11:56 PM 30.9 °F 23.5 °F 18.0 °F 59% 30.21 in 10.0 mi ENE 8.1 mph - N/A   Overcast